Location: Bremen
(53.0793°N, 8.8017°E)
Time: 12:23:18
(UTC+02:00)

Transit 2A Rocket - Pass Details

Date: 23 June 2024
Orbit: 582 x 910 km, 66.7° (Epoch: 19 July)

Event Time Altitude Azimuth Distance (km) Brightness Sun altitude
Rises 00:48:44 0° 277° (W) 3,281 8.5 -13.0°
Reaches altitude 10° 00:51:33 10° 292° (WNW) 2,409 8.0 -13.1°
Maximum altitude 00:56:03 24° 345° (NNW) 1,699 7.8 -13.2°
Drops below altitude 10° 01:00:48 10° 38° (NE) 2,556 8.4 -13.3°
Sets 01:03:53 0° 52° (NE) 3,527 8.9 -13.3°
